Tracking 19489 objects as of 22-Jan-2019
HD Live streaming from Space Station
objects crossing your sky now

FENGYUN 1C DEB

Track FENGYUN 1C DEB now!
10-day predictions


NORAD ID: 32088
Int'l Code: 1999-025CQE
Perigee: 870.2 km
Apogee: 1,532.2 km
Inclination: 102.4 °
Period: 109.3 minutes
Semi major axis: 7572 km
RCS: 0.0006 m2 (small)
Launch date: May 10, 1999
Source: People's Republic of China (PRC)
Launch site: Taiyaun Space Center, China (TSC)

Note: This is SATELLITE DEBRIS
aabbcc
Your satellite tracking list
Your tracking list is empty




NASA's NSSDC Master Catalog

Two Line Element Set (TLE):
1 32088U 99025CQE 19016.46224167 +.00000398 +00000-0 +72364-3 0  9990
2 32088 102.3906 113.3430 0437119 298.9213 056.8715 13.17548395265683
Source of the keplerian elements: AFSPC